Wind_Speed
23 24 24 26 27 27 28 27 28 28 29 31 32 33 34 34 35 36 37 37 38 39 39 39 38 38 38 38 38 38 38 38 43 50 53 54 52 51 50 49 47 46 45 44 43 42 42 42 42 41 39 38 36 35 33 32 30 26 22 18 17 17 16 15 12 10 9 8 8 7 7 5 4 3 1 2 3 7 10 12 11 13 18 20 22 25 27 30
24 24 24 24 25 26 27 28 29 29 30 31 31 33 34 35 36 36 37 38 39 39 40 40 40 40 40 40 40 40 40 40 42 47 52 55 54 53 52 51 49 48 46 45 44 43 43 43 44 43 41 40 39 38 34 32 30 27 24 18 17 21 19 15 12 11 11 10 8 7 6 4 4 3 1 1 3 7 9 9 8 12 17 19 20 23 25 27
23 24 25 25 25 25 26 27 29 30 31 31 32 33 34 35 36 37 38 39 40 40 41 41 42 42 42 42 42 42 42 42 42 45 52 55 55 54 54 53 51 49 47 46 45 45 45 45 45 44 43 42 41 40 37 33 27 25 26 21 16 21 21 17 13 12 12 11 8 7 6 3 3 2 2 1 4 8 6 6 8 11 16 18 19 21 23 25
23 23 24 25 26 26 26 27 27 29 30 32 33 34 34 35 36 37 38 39 40 41 42 42 43 44 44 44 44 44 44 44 44 45 49 54 56 56 56 55 53 51 49 48 47 47 46 46 46 46 45 44 43 42 40 36 27 22 24 22 18 21 21 18 18 16 15 12 9 8 7 3 1 1 2 1 5 6 2 4 10 11 15 17 17 19 20 22
26 25 25 25 26 27 27 28 28 28 29 30 32 34 35 36 36 38 39 40 41 42 43 43 44 45 45 46 46 46 45 46 47 46 47 52 56 58 58 57 56 53 51 50 49 49 48 47 47 47 47 46 45 44 43 41 34 25 23 25 24 23 23 22 23 21 18 15 13 10 7 4 1 1 1 3 3 4 1 4 11 11 13 17 16 17 18 20
28 28 28 27 27 27 28 29 29 29 29 29 31 33 35 37 37 38 39 40 41 42 43 44 45 45 46 47 48 48 47 48 49 47 47 51 56 58 59 59 58 56 54 52 51 51 50 49 48 48 48 48 47 46 45 43 39 31 25 28 28 23 23 23 24 23 19 17 16 13 8 5 3 3 3 2 1 3 4 5 10 11 14 16 15 16 17 18
31 31 31 31 30 29 29 29 30 30 31 31 31 32 34 36 38 39 39 40 42 43 44 45 46 46 47 48 49 49 49 51 50 48 48 50 54 58 60 61 60 58 57 54 53 52 51 51 50 49 50 50 49 48 47 43 41 37 28 26 27 25 23 23 24 23 20 18 17 17 12 6 4 5 5 4 3 5 7 8 11 11 14 15 13 14 16 17
32 33 33 34 33 33 32 31 32 32 32 33 33 34 34 35 37 39 41 42 42 43 44 45 46 47 48 49 50 50 51 53 53 51 51 51 53 57 60 62 62 61 59 56 55 53 52 52 51 51 51 51 50 50 49 45 43 40 32 26 24 24 25 25 25 23 22 20 18 19 16 8 4 5 7 6 6 7 8 10 11 11 13 12 12 14 14 15
33 34 35 36 36 36 35 34 34 34 34 35 35 36 36 37 37 38 41 43 44 44 45 46 47 48 49 50 50 51 53 56 55 52 53 53 54 56 60 63 63 62 61 59 57 55 54 54 53 52 52 51 51 52 52 50 47 42 36 30 25 26 27 26 26 23 23 22 21 21 19 11 8 9 8 5 7 9 8 10 11 12 13 11 10 12 13 13
35 35 36 37 38 39 39 38 38 37 37 37 38 38 38 39 38 39 40 43 45 45 46 46 47 49 50 51 51 51 55 59 57 54 55 56 55 57 60 64 65 65 63 61 59 57 56 55 55 53 52 53 53 54 53 53 51 46 40 35 28 28 31 29 27 25 24 23 22 23 20 16 13 11 10 9 9 11 9 11 13 14 13 10 9 10 11 11
39 39 39 39 39 39 40 41 41 41 40 40 40 41 41 41 41 41 41 43 44 46 48 48 48 49 50 51 52 53 57 60 59 56 57 58 57 57 60 64 66 67 66 64 62 60 58 56 56 55 54 54 55 56 56 55 54 49 45 40 32 28 31 31 29 28 28 25 23 22 20 18 13 10 10 11 11 11 11 12 14 14 13 11 8 8 9 9
43 44 44 44 43 42 41 41 42 43 44 43 43 43 44 44 43 43 44 44 45 46 48 49 50 49 50 52 52 55 58 60 61 58 58 61 60 59 60 63 67 68 68 66 65 63 60 58 57 56 54 55 57 57 57 57 56 53 48 44 38 31 31 31 29 29 31 30 26 23 22 20 13 8 10 11 10 11 13 14 14 14 14 11 8 7 6 7
46 47 47 47 46 45 44 42 42 43 45 46 46 45 46 47 46 46 46 46 47 47 49 50 52 51 52 52 52 56 59 62 62 59 61 63 61 61 62 63 66 69 69 68 67 65 62 60 58 57 56 58 59 59 59 59 59 57 54 50 45 40 36 34 30 29 31 31 30 27 26 24 18 13 13 11 10 12 14 14 13 14 14 10 6 4 3 5
51 51 50 50 49 48 46 45 45 45 46 46 48 48 48 49 49 49 49 49 49 49 50 51 53 53 53 52 52 56 59 63 63 61 63 65 63 63 63 63 65 68 70 70 69 67 65 62 60 59 59 62 62 62 63 63 62 60 59 57 53 49 43 37 31 31 33 33 33 31 29 28 25 20 17 12 10 11 14 14 13 15 15 8 3 2 2 3
54 54 54 53 52 51 50 48 48 48 48 48 48 49 50 50 51 52 52 52 52 52 52 53 54 55 55 53 53 56 59 63 64 62 64 66 65 65 65 64 65 67 70 71 70 70 68 66 65 63 63 65 65 65 64 64 63 62 61 60 58 54 48 41 32 30 37 38 36 35 32 30 28 23 17 15 15 14 14 15 13 15 14 6 1 1 2 2
57 57 56 56 55 55 54 52 51 50 51 51 50 49 51 52 53 54 55 55 55 55 55 55 55 57 57 55 55 58 61 64 65 64 66 68 67 67 66 66 66 67 69 72 73 73 71 70 69 67 67 66 66 66 65 64 63 62 62 61 59 57 52 47 39 30 37 42 39 38 35 32 28 22 18 19 21 19 17 16 14 12 11 7 3 1 1 2
60 59 59 58 58 58 57 55 54 53 53 53 52 50 50 53 54 55 56 57 58 58 58 57 58 59 60 59 58 59 62 64 65 65 66 69 69 68 68 68 68 68 70 72 74 75 73 73 72 70 68 66 65 65 65 64 63 63 63 62 60 58 54 52 48 36 35 42 43 41 38 35 29 24 20 21 24 22 19 18 14 10 10 11 6 3 3 4
63 62 62 61 60 60 59 58 56 56 57 56 54 51 49 52 54 56 57 59 59 59 59 60 61 61 62 62 60 60 62 63 64 65 67 69 70 70 70 70 70 70 71 72 74 76 76 75 74 71 69 67 65 64 66 65 65 65 64 63 62 60 57 54 55 49 39 39 43 44 42 38 33 29 26 25 25 23 20 18 14 12 12 13 9 5 5 5
67 66 65 64 63 62 61 60 60 60 60 58 55 51 49 50 53 56 58 59 60 60 61 62 64 64 64 65 64 64 63 61 63 66 67 69 70 71 73 73 72 72 72 72 74 76 77 77 75 73 71 70 68 67 68 68 67 67 66 65 63 61 60 57 57 58 50 42 42 45 44 42 38 35 32 29 28 25 22 19 16 14 13 14 12 7 5 4
70 69 68 67 66 65 64 64 64 63 61 58 54 50 48 49 52 56 58 60 61 62 63 64 65 66 66 66 66 66 64 61 64 67 67 69 71 73 75 74 74 73 73 74 75 76 77 77 76 75 74 74 72 71 71 69 67 68 68 66 65 63 62 61 59 59 58 50 45 44 45 44 42 39 35 33 31 28 25 22 18 16 16 17 15 11 8 4
73 72 72 70 68 67 67 66 65 62 59 54 50 47 46 47 50 54 57 59 61 63 64 64 64 66 67 68 67 67 65 64 67 68 69 71 73 75 76 76 76 75 75 75 76 76 76 76 76 77 77 77 76 74 74 71 69 70 69 67 66 64 63 62 61 60 60 57 51 47 45 45 44 41 37 34 32 29 26 24 22 20 20 21 20 17 13 7
76 75 74 72 71 69 68 65 62 57 53 49 46 44 44 45 48 52 54 57 59 61 63 63 64 65 67 68 68 68 69 70 71 70 70 72 74 76 77 77 77 77 77 77 76 75 75 75 77 78 79 79 78 77 76 73 71 71 70 68 66 65 64 63 63 63 62 60 57 53 49 46 45 41 37 35 31 28 27 27 24 21 22 23 22 20 16 10
78 77 75 73 70 67 63 59 54 50 46 44 42 42 42 44 47 49 52 54 56 59 61 62 63 63 65 67 69 72 75 76 74 72 71 73 75 75 76 78 79 79 79 78 77 75 75 76 78 80 81 81 80 79 79 76 74 72 69 68 67 66 66 65 65 65 63 61 59 57 53 49 46 42 40 38 33 29 31 30 25 21 20 23 22 20 18 13
79 76 73 69 64 59 54 50 45 42 41 39 39 39 40 42 45 47 49 51 53 56 58 60 61 62 64 67 71 76 77 76 75 74 73 73 74 74 76 79 80 81 81 79 78 77 77 78 80 81 82 82 81 81 82 80 75 72 70 69 68 67 67 67 68 68 65 61 59 58 57 53 49 46 43 41 36 31 32 30 26 22 21 23 22 21 20 15
75 70 65 60 54 49 44 41 38 37 36 36 36 37 39 40 42 44 46 48 49 51 54 56 58 60 63 66 70 75 76 75 76 76 76 75 73 74 77 79 80 82 82 81 80 79 79 81 81 81 82 82 82 83 83 80 76 74 73 71 69 67 68 69 70 70 67 62 59 61 60 56 52 49 45 43 39 37 35 32 28 25 23 25 25 22 20 16
67 60 55 49 44 40 37 34 33 33 32 33 34 36 37 39 40 42 43 45 46 47 50 52 54 57 61 64 69 73 75 77 78 78 79 78 74 75 78 79 80 82 83 83 82 82 82 82 82 82 82 83 83 83 82 81 80 78 76 74 70 70 71 72 72 71 69 66 64 64 62 60 56 52 48 45 43 43 41 37 33 30 27 28 28 25 20 17
56 49 45 40 36 33 31 30 29 30 30 31 33 34 36 37 39 40 41 42 42 44 46 47 50 54 57 60 65 70 74 77 78 79 80 80 77 77 78 79 80 81 83 84 83 84 84 84 84 83 83 83 82 82 82 83 83 79 78 76 73 73 75 75 74 72 70 68 68 67 64 62 59 55 50 47 46 47 45 41 38 35 31 30 29 26 23 20
46 41 37 34 31 28 27 27 26 27 28 30 31 32 34 36 37 38 39 39 40 42 44 45 48 50 51 55 62 68 71 74 77 79 80 81 80 80 80 81 82 82 83 84 84 85 86 86 85 84 84 83 83 84 83 83 82 80 79 77 75 77 79 77 76 75 72 69 68 67 64 62 60 57 54 52 50 48 46 45 43 39 35 33 30 27 26 24
39 34 31 28 26 24 24 24 24 25 26 28 29 31 32 34 36 37 37 38 39 41 43 45 46 47 49 53 58 62 67 71 75 78 80 82 82 82 82 81 82 83 83 84 85 86 88 88 87 86 85 85 85 84 83 82 82 81 80 78 78 81 81 80 78 76 71 69 68 66 63 61 59 58 57 56 53 51 50 48 47 43 38 36 33 30 29 27
33 29 26 24 22 21 21 21 22 24 25 26 27 29 31 32 34 35 36 38 39 41 43 45 46 46 48 51 54 58 62 67 71 73 78 83 83 83 83 82 82 82 82 83 85 86 88 89 89 88 87 88 86 82 81 81 82 82 80 80 82 84 84 83 80 76 72 70 68 66 64 61 58 57 56 56 55 54 53 52 50 47 42 39 37 35 33 30
28 25 23 20 19 19 19 20 21 22 23 24 26 27 29 30 32 33 36 38 39 41 43 44 46 48 49 51 52 55 58 62 66 69 74 80 82 84 84 83 83 83 83 84 85 86 89 90 91 90 89 88 83 80 82 83 82 82 81 82 84 85 86 85 81 77 73 70 69 69 67 61 58 58 56 55 55 55 55 54 53 50 46 42 40 39 38 33
24 22 20 18 17 17 18 18 19 20 21 22 23 25 26 28 30 32 35 37 39 41 43 44 48 50 51 52 53 53 54 58 62 65 69 74 79 83 85 85 84 84 85 85 85 86 89 91 92 91 90 88 83 82 85 84 83 83 82 83 84 84 86 85 82 78 74 71 72 72 69 64 61 61 58 55 55 55 55 56 55 52 49 46 43 43 42 36
21 19 18 17 17 16 16 16 17 18 19 20 21 23 24 26 29 31 35 37 39 42 44 46 50 52 53 54 55 54 54 57 59 62 66 71 78 82 84 86 86 85 86 86 86 88 90 92 93 91 91 91 88 87 87 86 85 85 85 84 84 83 85 84 81 78 76 75 75 74 71 68 64 61 59 57 54 52 52 55 59 56 51 50 48 45 44 41
18 18 17 17 17 16 16 16 16 16 17 19 20 23 25 27 30 33 36 39 42 45 47 49 52 54 56 57 56 55 57 58 58 60 63 67 75 78 80 84 85 86 89 88 87 89 90 93 93 91 92 92 90 89 89 88 86 86 87 86 85 84 84 82 79 77 77 77 76 77 76 71 65 60 58 57 56 55 52 52 56 58 55 53 52 50 49 47
17 17 17 18 17 17 16 16 16 16 18 20 22 24 27 29 32 35 38 40 43 46 49 51 54 57 58 58 57 58 60 60 59 61 62 64 70 74 77 81 83 87 91 89 88 89 90 93 93 92 93 94 93 94 94 91 88 87 88 87 85 84 82 81 80 79 78 78 79 82 81 72 65 62 59 56 56 59 59 54 53 57 58 56 55 54 54 53
17 18 19 19 18 16 16 16 16 18 19 21 23 25 28 31 33 35 38 40 43 46 48 51 54 58 60 60 59 60 63 63 61 62 63 64 68 73 77 81 83 87 91 90 89 91 91 92 93 94 94 93 94 98 98 94 90 88 89 87 85 85 83 82 83 83 82 81 82 85 82 74 69 66 63 60 59 62 64 60 56 56 57 57 56 56 56 56
17 19 20 20 18 16 16 16 17 19 21 23 25 27 30 32 33 34 36 38 41 43 46 49 52 57 59 59 60 63 65 64 63 65 66 66 69 74 79 82 84 89 92 92 92 94 94 92 93 94 93 92 96 100 99 95 92 90 90 89 88 87 86 85 85 85 85 85 86 85 81 77 74 71 69 69 68 68 67 65 61 59 58 57 57 57 56 55
17 19 21 20 19 17 17 17 19 21 23 25 28 30 31 31 32 32 33 34 37 40 43 46 50 53 56 58 60 64 66 65 65 68 71 72 75 78 81 81 84 89 91 90 91 94 94 92 92 92 91 93 97 100 98 96 95 94 92 91 89 88 87 86 84 84 84 85 86 84 80 77 76 74 72 73 73 71 69 68 66 63 62 60 58 58 55 53
18 20 22 21 19 18 18 19 21 23 25 28 31 32 31 29 28 27 27 29 31 34 38 43 46 49 54 58 62 66 68 69 69 70 75 79 80 80 81 82 84 84 83 84 86 89 91 91 91 90 89 92 97 98 96 96 97 97 94 91 88 86 86 86 84 83 83 83 83 81 78 76 75 73 70 71 74 73 71 71 70 67 65 63 61 60 57 55
17 22 23 22 19 18 19 21 23 25 29 32 34 33 31 28 25 23 22 23 25 29 33 37 40 45 51 57 61 65 69 72 74 75 80 83 82 82 82 81 81 78 76 77 81 86 89 89 90 91 91 92 94 95 95 94 97 97 94 91 88 85 84 85 85 85 86 86 83 81 79 77 75 73 68 66 70 74 73 73 73 70 67 65 65 62 59 58
17 23 24 21 19 19 21 23 26 29 33 36 37 35 31 27 23 21 19 20 21 24 27 30 34 39 45 50 56 62 67 73 77 80 83 84 84 85 82 79 77 75 74 76 81 87 89 89 90 91 91 90 90 92 93 93 97 98 96 93 90 88 88 88 89 89 90 91 87 84 82 78 75 75 73 68 69 74 76 76 75 74 70 68 68 65 61 60
18 24 25 21 19 20 22 24 28 32 36 38 38 37 32 26 22 19 17 17 17 19 22 24 27 31 38 43 50 57 63 68 74 79 82 83 83 84 81 78 76 75 77 81 85 88 89 89 90 90 91 90 88 90 93 95 97 98 96 94 93 93 93 93 95 95 96 95 90 86 84 80 76 74 75 75 73 74 77 78 78 77 73 71 70 67 64 62
19 25 25 22 20 22 24 26 30 33 38 40 40 38 33 26 22 19 16 14 14 16 18 20 23 27 32 38 43 50 54 60 67 74 79 81 81 83 82 79 78 78 79 82 85 87 87 88 89 89 89 88 88 91 94 96 96 94 92 92 93 95 97 97 98 98 98 97 92 88 85 82 77 75 75 77 76 75 77 78 79 78 75 73 72 69 67 65
21 26 26 23 22 23 25 28 32 36 40 43 43 40 35 28 24 20 16 14 13 13 15 17 20 24 29 34 39 43 47 53 61 68 75 78 82 84 83 80 79 79 80 82 83 86 88 89 89 88 87 86 87 90 93 94 94 92 90 91 94 98 101 102 100 98 98 95 92 90 89 84 80 80 80 78 74 74 76 77 79 78 75 72 72 70 69 67
23 26 26 24 23 23 26 29 33 38 42 44 45 42 36 30 26 22 18 14 12 11 13 15 17 21 26 30 34 38 42 48 54 61 69 74 79 84 84 82 81 83 84 85 85 86 88 89 88 87 86 86 87 88 89 92 93 92 91 91 95 101 105 104 101 99 97 95 93 92 91 88 85 84 85 82 77 74 73 73 76 76 74 72 72 71 70 68
23 26 26 25 23 24 26 30 34 38 42 44 45 42 37 32 28 24 19 15 12 11 11 12 14 18 23 26 29 33 38 44 49 55 61 67 73 79 83 84 85 86 88 89 89 88 88 88 87 86 85 84 84 84 87 91 93 94 94 95 97 102 106 105 102 101 99 96 95 94 92 91 89 88 87 85 80 75 72 72 74 75 73 71 70 70 70 69
24 26 26 25 24 25 27 30 35 39 42 44 45 42 36 32 29 25 20 16 13 11 11 12 14 17 20 23 25 29 32 37 43 49 54 60 66 73 79 83 86 88 89 90 90 89 89 89 88 87 86 83 81 82 85 89 93 96 97 98 100 103 104 103 102 103 102 99 95 94 92 91 91 89 87 85 81 77 75 74 75 75 74 71 70 69 69 69
24 26 27 25 25 26 28 31 35 38 41 44 44 41 36 31 29 26 22 18 14 11 10 11 12 15 18 21 23 27 30 32 37 43 48 54 60 65 72 79 85 88 89 89 89 90 91 91 89 88 88 86 85 85 85 88 92 95 94 96 99 100 100 100 101 102 102 100 97 94 92 91 91 89 86 85 82 78 77 77 77 76 75 72 71 70 69 69
24 26 27 26 25 26 28 32 35 38 41 43 44 41 35 30 28 26 23 18 15 12 10 9 10 13 16 18 21 24 27 31 34 37 42 48 54 59 65 72 79 85 87 88 90 92 93 93 90 88 88 88 88 89 89 90 92 93 93 96 98 97 96 98 100 101 102 101 99 96 93 92 91 89 87 86 83 80 79 78 78 77 77 74 72 72 72 71
25 26 27 26 25 25 28 33 36 39 41 43 44 41 35 30 28 26 23 18 15 14 12 10 9 10 12 15 18 20 24 29 32 34 38 43 48 53 59 65 72 79 84 88 90 93 95 95 92 88 87 86 86 87 88 89 91 92 93 96 97 94 93 96 98 101 102 102 101 99 97 95 93 91 90 89 87 84 82 80 79 78 78 76 74 73 73 72
24 26 27 27 26 25 28 33 36 38 40 42 43 41 36 30 28 26 23 19 18 15 13 11 9 9 11 14 19 21 24 27 29 32 37 41 44 49 54 59 66 73 80 86 90 94 96 95 92 89 87 87 86 85 86 88 90 91 93 96 96 94 94 96 97 99 101 101 102 102 100 97 95 94 94 92 91 90 86 84 81 80 80 79 77 75 74 73
23 25 26 27 26 26 29 33 36 37 39 41 42 41 36 30 28 26 23 21 19 16 13 10 9 9 11 14 18 21 24 25 26 30 34 38 41 45 50 55 61 67 73 80 86 91 93 93 91 89 88 88 87 87 89 91 91 91 91 94 95 94 94 97 98 101 102 101 100 101 100 99 98 97 96 95 94 93 91 89 86 85 84 82 81 79 77 75
Wind_Direction
293 288 284 281 277 273 270 267 264 261 258 255 253 250 246 242 239 238 237 235 234 232 230 227 224 224 223 220 217 216 214 211 211 211 211 210 209 207 208 208 208 208 208 209 207 206 205 205 203 201 200 199 197 195 196 200 198 199 200 187 185 192 191 195 210 223 217 200 183 179 182 162 114 111 20 25 2 359 16 14 21 24 17 19 18 16 17 16
303 297 291 286 281 276 271 266 263 260 258 255 252 250 248 244 240 237 236 235 233 231 230 228 226 224 223 222 219 216 215 213 212 211 211 211 210 209 209 209 208 208 208 208 208 207 206 205 204 202 200 199 197 195 195 199 199 204 204 185 189 201 197 196 210 229 226 216 201 192 194 151 110 130 93 38 358 352 357 9 26 18 14 17 15 15 15 15
309 305 299 294 288 282 276 270 264 260 257 255 252 249 247 245 242 239 236 234 232 230 229 228 227 225 223 223 221 218 216 215 213 211 211 211 210 210 210 210 209 208 208 208 208 207 207 206 205 203 201 200 198 196 194 197 201 206 204 189 191 202 198 196 206 229 226 217 215 209 203 162 117 124 111 62 351 346 339 10 19 4 7 12 12 13 13 15
312 307 303 298 294 288 283 276 270 263 258 254 252 250 247 245 243 241 237 234 232 230 228 227 226 225 223 223 222 221 218 216 215 212 211 210 211 211 211 211 209 209 208 208 208 208 208 207 205 203 202 201 199 197 193 198 201 198 200 196 201 209 210 209 202 216 229 224 219 206 195 181 101 97 100 22 357 351 321 7 1 354 1 7 8 10 12 14
313 309 304 299 295 291 287 282 276 269 263 256 252 249 248 245 243 241 239 236 233 230 228 226 225 225 224 223 223 222 220 218 216 213 211 210 210 211 212 212 210 209 208 208 209 208 208 207 206 204 203 202 201 198 195 201 204 199 206 206 205 213 220 218 205 210 226 221 213 211 210 223 237 145 331 345 15 5 278 327 350 353 357 1 4 7 12 14
313 309 305 301 296 292 288 284 280 274 268 262 255 250 247 245 243 241 239 237 234 231 229 226 224 224 224 223 223 223 221 220 218 214 212 210 210 210 211 213 211 210 209 209 209 208 208 207 207 205 204 203 202 200 198 204 206 203 215 213 206 211 216 214 206 209 217 213 214 226 238 239 225 210 274 303 345 326 274 295 338 348 352 357 4 9 14 15
313 310 306 302 298 293 288 285 281 277 272 266 260 254 249 245 242 240 239 238 235 232 230 227 225 223 223 223 222 223 223 223 220 215 214 212 210 210 211 213 213 211 210 209 209 209 208 208 207 206 205 204 203 202 200 204 206 204 211 211 207 213 217 216 212 215 223 222 224 235 244 246 246 265 275 271 272 290 275 289 323 339 352 359 10 16 18 16
312 310 307 304 300 295 290 286 282 278 274 269 263 258 253 247 242 239 237 237 236 233 230 228 226 224 222 222 222 222 223 224 221 216 214 213 210 210 210 212 214 213 211 210 210 209 209 208 208 207 205 204 204 203 203 205 205 207 210 206 207 214 217 218 218 224 232 231 231 234 236 239 250 264 272 281 278 278 282 291 309 329 345 358 12 19 18 17
309 307 305 303 301 298 294 289 283 278 274 270 265 260 255 250 245 241 237 235 235 234 231 228 226 225 222 221 221 222 222 224 222 217 216 214 211 210 209 210 213 214 213 211 211 210 209 209 209 208 206 205 206 206 207 208 207 209 211 207 210 215 217 222 223 226 232 233 234 232 229 234 241 234 234 245 258 267 280 282 296 315 327 342 359 12 17 18
309 307 305 302 300 299 296 293 287 281 275 270 266 262 257 252 247 243 239 235 233 233 232 229 227 225 223 221 220 221 222 224 223 218 217 216 212 211 209 209 211 213 213 212 211 210 210 210 209 209 207 206 208 208 209 209 208 210 211 209 211 218 220 222 223 223 228 232 233 230 227 233 240 234 219 207 231 257 265 272 291 306 313 326 342 3 14 17
310 310 308 305 301 299 297 295 291 286 280 273 267 263 259 255 250 245 241 237 233 231 231 230 228 226 224 222 219 220 222 222 222 218 218 218 214 212 211 210 210 211 212 212 212 211 211 210 210 210 208 208 210 209 209 209 209 210 210 209 209 215 218 218 219 222 226 229 228 226 225 226 229 241 241 228 232 244 253 274 292 298 304 316 333 356 8 16
311 311 310 308 304 301 299 296 293 289 285 279 271 264 260 256 251 246 242 238 234 231 229 228 227 226 224 223 220 221 222 222 222 218 219 220 216 213 212 211 210 211 212 212 212 212 211 210 210 210 209 209 211 210 210 212 212 211 211 210 209 212 215 215 219 222 224 228 228 226 224 218 214 226 235 227 219 225 248 276 287 292 301 312 324 342 2 19
310 310 309 307 304 301 300 298 296 292 287 282 276 269 261 256 252 247 243 239 235 232 229 226 225 224 224 223 222 223 222 221 221 218 219 221 218 215 213 212 211 211 211 212 212 212 212 211 211 210 210 211 212 212 213 213 214 214 214 213 212 213 214 215 222 225 222 226 229 230 230 222 214 214 215 215 219 229 253 270 279 291 300 307 317 332 10 30
309 307 306 304 303 301 299 298 298 296 291 285 279 272 265 257 252 247 243 240 236 233 230 226 224 223 222 221 222 224 222 222 221 217 219 221 219 217 215 213 212 211 211 211 212 212 212 211 211 210 211 212 211 212 213 213 213 213 215 215 215 216 215 212 221 230 228 229 231 231 233 227 220 220 219 222 221 227 252 261 271 289 294 297 309 336 34 42
309 306 304 302 301 301 299 297 296 296 295 290 283 275 267 260 253 248 243 240 237 233 230 227 224 222 220 219 220 223 222 223 221 217 218 220 220 219 217 214 212 212 212 211 212 212 212 211 211 210 211 212 212 213 213 213 213 213 214 215 215 217 215 210 217 234 234 232 234 231 232 228 222 222 225 228 226 230 247 249 264 288 289 279 250 18 52 68
308 305 303 301 300 299 299 297 296 295 294 293 287 277 268 261 254 248 244 240 237 235 231 228 224 222 219 217 219 221 221 222 220 217 218 219 219 219 218 216 213 212 212 212 212 211 211 212 212 211 212 213 212 214 214 214 214 215 216 216 216 217 216 212 212 226 232 230 231 229 228 228 224 221 223 229 231 237 243 241 258 287 289 270 220 118 92 107
307 305 302 300 299 299 298 297 296 295 294 293 290 281 269 260 254 249 244 241 237 235 232 229 226 223 220 218 219 219 220 223 221 218 218 219 219 219 219 218 215 213 212 212 212 212 211 212 213 213 213 214 214 215 216 215 216 217 217 217 217 217 217 215 210 216 226 227 229 228 225 227 225 214 209 222 232 239 241 241 254 271 276 269 239 186 149 130
306 304 302 301 299 299 298 297 296 296 295 293 290 282 270 259 253 248 244 241 238 235 233 230 227 224 221 220 220 219 219 221 222 219 218 219 219 219 219 219 217 214 213 213 213 213 212 212 213 213 214 215 216 217 217 217 216 218 218 218 218 218 218 218 215 217 221 224 227 226 224 225 224 214 208 218 231 236 235 237 253 257 258 263 244 197 168 148
306 304 303 301 300 299 299 298 297 296 295 293 288 281 270 258 251 246 243 240 238 235 233 230 228 225 222 221 220 218 217 219 221 221 218 219 219 219 219 219 218 216 214 213 213 213 213 212 213 212 213 214 215 217 218 217 217 218 219 219 218 218 219 220 219 219 219 223 226 226 226 225 223 220 215 220 230 234 234 238 253 250 240 247 241 218 196 171
307 305 304 302 301 300 299 297 297 295 293 290 285 278 267 256 248 244 241 239 237 235 233 231 229 226 224 223 221 219 217 218 221 220 218 218 218 219 219 219 219 218 216 214 213 213 213 213 213 212 213 214 214 216 218 217 216 218 219 219 218 218 219 220 221 221 220 223 226 224 223 224 223 222 220 224 231 235 238 241 244 239 232 237 239 237 236 219
308 306 304 303 301 299 298 297 295 294 291 286 280 273 262 253 246 241 239 238 236 235 234 233 231 228 225 223 221 219 218 219 220 219 218 218 218 218 218 218 219 219 218 216 214 213 213 214 213 213 214 215 215 216 218 217 216 218 219 219 220 220 221 222 222 223 221 221 225 224 222 223 223 222 222 225 232 233 236 239 238 238 238 236 235 240 247 248
308 306 304 302 300 298 297 295 294 291 286 280 274 266 258 250 244 239 237 236 235 235 234 233 231 229 226 224 222 221 220 220 219 218 217 217 218 218 217 217 218 218 219 218 216 214 213 214 214 214 214 215 215 216 218 217 217 218 218 219 220 221 222 224 225 225 222 221 226 228 226 225 223 223 223 225 231 232 232 235 236 240 240 235 231 233 238 244
308 306 303 301 299 297 295 293 290 285 279 273 267 260 253 248 243 239 236 234 234 235 234 233 232 230 227 224 222 221 220 219 218 217 216 216 217 218 217 217 217 218 218 219 217 215 213 213 214 215 215 215 215 216 218 217 217 218 218 219 220 221 222 224 226 227 225 224 226 227 227 226 223 224 226 227 231 234 234 234 235 238 233 226 226 225 228 236
308 306 303 301 299 297 293 290 284 278 272 266 260 255 250 245 242 239 236 234 233 234 234 233 232 230 227 224 223 222 221 219 218 218 217 216 216 217 218 218 217 218 218 218 218 216 214 214 214 215 215 215 215 217 218 217 217 218 219 220 220 221 223 224 225 226 225 225 227 228 227 226 223 223 226 228 229 232 233 232 231 232 223 221 226 226 228 233
308 306 304 301 298 295 289 284 277 270 265 260 256 251 247 244 242 240 237 235 233 233 233 233 231 229 227 224 224 223 221 220 219 218 218 217 216 216 218 218 217 218 217 217 218 217 216 215 215 215 215 216 216 217 218 217 217 218 219 220 220 220 223 224 225 226 224 222 225 227 227 226 223 222 226 229 228 227 231 232 229 227 221 223 231 232 234 232
309 307 304 301 296 291 285 277 271 265 260 256 252 249 247 245 243 240 238 236 235 234 232 231 230 228 226 224 224 223 221 220 219 218 219 217 215 215 217 217 217 217 217 217 217 217 218 217 216 215 215 216 216 217 218 217 217 217 218 220 220 221 223 224 225 226 225 223 225 226 226 227 226 224 226 229 229 229 232 234 230 227 222 224 231 232 233 230
311 308 304 300 294 288 281 272 266 262 257 254 251 249 247 245 244 242 239 237 237 236 234 231 229 227 225 223 224 223 221 220 219 218 219 217 215 215 216 216 217 217 217 217 217 217 218 218 217 216 216 216 216 217 218 218 217 217 218 219 219 221 223 224 224 225 225 224 226 227 226 227 228 227 227 229 231 230 232 234 233 230 225 224 229 228 227 229
312 308 303 298 292 285 278 270 264 259 256 253 250 249 248 246 244 243 241 239 237 237 235 232 229 226 224 222 223 223 221 220 219 218 219 218 216 216 216 215 216 216 216 216 216 217 218 219 219 218 217 216 216 217 217 218 218 217 218 219 220 222 223 224 225 224 224 223 225 227 227 228 229 229 229 229 231 231 232 234 233 232 227 223 227 227 225 227
313 309 303 297 291 283 276 270 265 260 257 255 253 251 249 247 245 243 242 240 239 237 236 234 231 226 224 223 222 222 221 220 219 218 219 218 216 216 216 215 216 216 216 216 215 216 217 219 219 218 218 217 217 217 217 218 218 217 218 219 220 223 224 224 225 225 225 225 226 227 228 228 229 230 230 229 230 232 233 233 233 232 229 224 228 228 223 223
314 309 304 297 290 284 277 272 267 263 260 258 256 253 250 248 246 245 244 242 240 238 236 234 232 228 225 225 223 221 220 220 219 218 219 218 216 217 216 215 216 216 216 216 215 215 217 218 219 219 219 218 217 217 217 218 218 217 218 219 220 223 224 224 225 225 225 226 227 227 227 227 228 230 231 230 230 232 233 233 234 234 232 229 231 229 221 220
315 310 305 299 292 286 281 275 270 266 263 260 258 255 253 251 249 247 245 242 240 238 236 234 233 230 227 225 225 223 219 219 218 217 219 218 216 216 216 215 216 215 215 215 215 215 216 217 218 219 220 220 218 218 218 218 218 218 217 219 221 223 225 224 224 224 224 225 227 227 226 225 226 228 229 230 231 231 232 232 234 235 234 232 232 229 221 218
316 311 307 303 297 291 285 279 274 270 266 263 261 260 258 255 252 249 246 244 242 239 237 234 234 232 229 226 224 223 220 218 217 217 218 218 216 216 216 215 215 215 215 214 214 215 215 216 217 217 219 219 218 218 219 218 218 217 217 218 221 223 225 225 224 224 224 225 227 228 226 224 224 225 226 227 229 230 232 232 233 234 233 229 228 226 222 222
318 314 311 309 307 301 293 285 279 274 271 268 265 262 260 257 254 250 247 244 241 239 236 233 233 232 231 228 225 223 221 218 217 216 217 217 216 215 215 215 214 215 215 214 214 214 214 216 216 216 217 218 217 218 219 218 217 218 217 218 220 222 225 225 224 224 223 224 226 227 226 224 223 225 225 225 227 228 231 231 230 231 231 226 224 225 224 228
320 319 318 317 314 307 297 289 283 276 272 269 266 264 262 259 257 253 250 246 242 239 236 234 233 232 231 229 226 224 223 219 215 216 216 217 217 216 216 216 215 215 214 213 214 215 214 215 214 214 216 217 217 218 219 218 217 218 218 218 219 222 224 224 224 224 224 224 225 226 225 223 222 224 226 226 226 226 227 229 228 229 230 227 225 226 228 234
323 322 321 321 317 309 299 290 282 276 273 272 273 273 271 268 264 260 256 252 247 243 239 235 234 233 231 229 226 224 224 221 216 216 216 217 218 216 216 216 215 216 215 213 213 214 215 216 214 213 214 215 215 217 219 218 217 218 219 219 220 221 223 224 223 223 224 224 225 225 224 222 219 220 223 225 226 225 226 228 229 229 231 230 228 228 230 235
325 323 323 322 318 309 298 289 283 282 284 285 285 285 283 279 273 267 261 256 251 246 242 238 235 234 233 231 227 225 225 222 218 217 216 216 217 217 216 215 215 216 215 213 213 214 215 215 214 213 213 213 215 217 218 218 217 217 219 219 220 221 222 223 223 222 223 224 225 225 225 223 220 219 219 222 224 225 226 228 229 230 230 231 231 230 231 234
325 325 324 324 320 312 302 295 295 296 299 300 300 298 294 289 282 274 267 260 255 249 245 240 236 235 235 232 229 226 226 224 219 217 217 216 217 218 217 215 215 216 215 213 214 214 214 215 214 213 213 213 215 217 218 218 218 218 218 219 219 220 221 223 223 223 223 224 224 225 225 224 223 220 219 220 223 225 226 227 228 228 229 230 230 229 230 233
330 329 327 328 325 317 309 305 306 308 309 311 311 309 304 298 289 279 269 261 255 249 244 239 235 234 233 232 229 227 227 226 222 218 217 217 217 218 217 216 216 217 215 214 215 215 215 215 215 214 213 213 216 217 217 217 218 218 218 219 219 220 221 223 224 225 226 226 225 225 225 224 224 224 222 223 224 225 226 227 227 227 228 229 230 230 230 231
340 334 331 330 326 319 315 313 314 317 319 320 319 316 311 303 293 283 272 262 254 247 241 237 234 231 230 228 226 224 223 224 223 220 218 218 218 219 218 216 216 217 216 216 217 217 216 216 215 213 213 215 217 218 217 216 218 219 219 219 219 221 222 223 224 225 226 227 226 224 224 223 223 223 223 224 226 226 227 228 228 228 228 229 231 232 230 229
342 338 334 331 328 323 321 321 323 325 326 327 327 324 320 313 304 293 281 268 257 248 240 235 231 228 227 226 224 222 220 221 221 220 219 219 219 220 220 218 216 215 216 218 219 219 217 216 215 213 213 214 217 218 217 216 218 219 219 219 219 220 222 224 225 226 227 227 226 224 223 222 222 221 220 221 224 225 225 227 228 228 228 229 231 231 230 230
340 342 336 332 330 325 325 328 330 332 332 333 333 332 331 325 316 305 291 277 263 252 243 236 229 225 225 224 223 221 219 218 218 219 220 219 218 220 220 219 217 215 214 216 219 219 217 216 215 214 213 213 215 217 217 216 217 218 218 218 218 219 220 222 223 224 226 227 226 224 223 221 221 222 220 220 221 222 223 225 227 227 227 228 230 230 230 230
339 342 335 334 333 328 330 334 334 335 336 338 339 339 338 334 326 316 301 286 270 256 247 239 231 226 224 222 221 221 219 218 218 219 221 221 220 220 221 219 217 215 214 216 218 218 218 217 215 214 213 213 214 216 216 216 217 217 217 218 219 220 220 221 221 222 224 225 225 225 224 221 221 222 222 223 223 223 223 225 226 226 225 226 229 230 230 231
338 340 335 336 337 333 335 336 336 337 339 342 344 344 344 341 336 327 314 298 280 264 253 243 233 227 224 223 221 220 219 218 218 219 221 221 220 220 221 220 217 215 215 218 219 219 219 218 216 214 214 214 215 217 216 216 217 217 217 217 219 221 222 222 222 222 223 224 224 224 225 223 222 222 223 224 224 224 225 226 227 227 226 226 228 229 230 231
337 338 335 338 338 335 338 338 338 341 343 346 348 348 347 347 344 337 326 312 293 274 261 248 235 227 224 223 221 219 217 216 217 217 218 219 219 219 220 220 219 216 217 219 220 221 220 219 216 215 214 214 216 218 218 217 217 216 216 216 217 219 221 222 223 224 225 225 225 224 224 223 222 222 224 223 223 223 226 228 229 228 227 227 228 229 229 230
337 335 334 338 338 336 339 339 340 343 346 349 351 350 350 349 348 344 336 324 305 284 269 256 244 232 226 224 222 219 216 216 216 216 216 216 217 218 218 218 218 217 216 218 219 221 221 220 218 216 214 214 215 218 219 218 217 216 216 216 217 219 220 221 222 224 225 225 225 225 224 223 222 223 224 224 223 222 225 228 230 229 228 227 228 230 230 230
334 331 332 336 337 337 339 340 341 344 348 351 353 352 351 350 349 348 342 332 316 292 274 261 248 236 230 226 223 220 218 216 215 216 216 215 215 216 217 217 217 217 217 217 218 220 221 220 219 217 216 215 215 217 219 218 217 216 216 216 218 219 220 220 221 223 225 225 225 225 225 225 223 224 225 226 225 223 224 227 230 230 228 227 227 229 230 230
328 328 331 335 337 338 340 342 343 346 350 353 354 354 353 351 349 347 344 339 325 298 275 262 249 238 232 227 222 220 219 218 218 217 216 215 214 215 215 216 217 217 218 218 219 220 222 221 219 218 217 216 215 216 218 218 218 217 217 217 219 220 220 221 221 222 224 225 225 225 226 227 226 226 226 227 227 225 224 226 229 230 228 227 226 228 229 230
324 327 331 336 338 340 342 343 344 347 351 354 355 356 354 352 350 347 345 343 333 311 282 267 257 245 238 230 224 220 217 215 217 217 216 215 214 213 214 215 216 217 218 219 219 221 223 223 220 218 217 216 215 215 217 219 218 218 218 219 221 222 221 221 222 223 224 225 224 224 225 227 228 228 228 228 228 227 227 227 229 230 229 227 226 226 227 228
322 327 331 335 338 341 342 344 345 348 352 355 356 356 355 353 352 350 348 344 339 325 298 275 263 253 245 237 229 225 221 217 214 215 216 216 214 213 213 214 215 217 218 219 219 220 223 224 223 220 219 218 216 215 216 218 218 218 218 219 220 221 222 222 222 222 224 225 225 224 224 225 227 228 228 228 228 227 227 228 229 231 231 228 226 225 226 227
322 327 331 334 337 340 343 345 346 349 353 355 356 356 355 354 354 354 353 349 343 334 316 295 278 258 246 238 231 226 224 221 216 213 214 215 213 212 212 213 214 216 217 218 219 220 222 224 224 222 221 221 220 219 219 220 220 219 220 221 220 220 222 223 223 223 223 223 224 225 224 225 225 226 226 226 226 226 226 226 228 230 231 230 228 225 225 226
322 325 330 332 336 339 342 345 347 350 353 355 356 356 355 355 355 355 356 353 346 337 323 308 290 264 245 235 229 224 222 221 218 215 215 214 213 211 211 212 213 214 216 217 218 220 221 223 224 223 222 222 221 221 222 223 223 222 221 221 220 220 222 223 223 223 223 223 224 224 224 225 225 225 225 225 225 225 225 226 226 227 229 230 229 228 226 226
321 325 329 332 336 339 341 343 346 349 352 354 355 356 355 354 354 356 357 355 350 344 332 315 292 268 251 240 235 232 228 222 218 217 218 216 215 213 212 212 213 214 215 217 218 220 221 223 223 223 223 223 222 222 222 223 223 223 223 222 220 219 221 223 224 223 222 222 223 224 224 224 225 226 226 225 224 224 225 225 225 226 227 229 230 230 229 228
Height
10902 10902 10901 10901 10901 10901 10901 10902 10902 10902 10903 10904 10905 10906 10908 10909 10911 10913 10914 10916 10918 10920 10923 10925 10927 10929 10930 10932 10934 10936 10938 10940 10942 10945 10949 10952 10957 10960 10963 10965 10968 10971 10974 10977 10979 10982 10984 10986 10988 10990 10993 10996 10998 11000 11002 11004 11006 11008 11011 11015 11017 11017 11017 11018 11018 11019 11022 11023 11024 11025 11025 11024 11023 11023 11021 11020 11021 11020 11020 11021 11021 11022 11022 11022 11021 11021 11019 11018
10899 10898 10898 10897 10897 10897 10897 10897 10898 10898 10899 10899 10900 10901 10902 10904 10906 10908 10909 10911 10913 10916 10918 10920 10922 10925 10926 10928 10930 10932 10934 10935 10938 10942 10944 10948 10953 10957 10959 10962 10965 10968 10971 10974 10977 10979 10981 10983 10985 10988 10991 10993 10996 10998 11000 11002 11004 11007 11009 11014 11016 11015 11016 11017 11018 11019 11020 11021 11021 11023 11023 11023 11023 11024 11022 11021 11021 11021 11021 11021 11021 11022 11022 11022 11022 11022 11021 11020
10896 10895 10894 10894 10893 10893 10893 10893 10893 10894 10894 10895 10896 10896 10897 10899 10900 10903 10904 10906 10908 10910 10913 10915 10917 10920 10922 10924 10926 10928 10930 10932 10934 10937 10940 10945 10950 10953 10956 10958 10962 10965 10968 10971 10974 10976 10978 10980 10982 10985 10988 10991 10994 10996 10999 11000 11002 11005 11008 11013 11014 11013 11014 11017 11019 11018 11017 11018 11019 11021 11021 11021 11022 11022 11022 11021 11021 11021 11021 11021 11021 11022 11022 11022 11022 11022 11022 11021
10893 10892 10891 10890 10890 10889 10889 10889 10889 10889 10890 10891 10891 10892 10893 10894 10895 10897 10899 10901 10903 10905 10907 10910 10912 10915 10918 10920 10922 10923 10926 10928 10930 10932 10936 10941 10945 10948 10951 10954 10958 10961 10965 10968 10970 10972 10974 10977 10980 10983 10986 10989 10991 10994 10996 10997 10999 11002 11005 11009 11011 11010 11012 11016 11020 11019 11016 11016 11018 11020 11020 11020 11021 11021 11021 11021 11020 11020 11020 11020 11021 11022 11022 11022 11022 11022 11022 11022
10891 10889 10888 10887 10886 10885 10885 10884 10885 10885 10885 10886 10886 10887 10888 10889 10890 10891 10893 10895 10898 10900 10902 10904 10907 10910 10912 10915 10917 10919 10922 10924 10924 10928 10933 10936 10939 10943 10947 10949 10954 10958 10961 10963 10965 10969 10971 10974 10977 10980 10983 10986 10989 10991 10993 10993 10995 10999 11002 11004 11006 11008 11011 11014 11018 11017 11016 11017 11018 11019 11020 11020 11020 11020 11020 11020 11020 11020 11020 11020 11021 11022 11022 11022 11022 11022 11022 11022
10887 10886 10885 10884 10883 10882 10881 10880 10880 10880 10881 10881 10881 10882 10883 10884 10885 10886 10888 10890 10892 10894 10896 10899 10901 10904 10907 10910 10913 10915 10918 10918 10920 10926 10928 10931 10934 10938 10942 10945 10949 10953 10956 10959 10962 10965 10968 10971 10974 10977 10981 10983 10986 10989 10991 10992 10994 10998 10999 11001 11004 11006 11009 11011 11014 11014 11014 11016 11017 11018 11020 11020 11020 11020 11020 11020 11020 11020 11020 11020 11021 11022 11022 11022 11022 11022 11021 11021
10884 10882 10881 10880 10879 10878 10877 10876 10876 10875 10876 10876 10876 10877 10877 10878 10880 10881 10882 10884 10886 10888 10891 10893 10896 10899 10901 10905 10908 10911 10913 10913 10917 10922 10923 10926 10930 10934 10937 10940 10944 10948 10951 10955 10958 10961 10965 10968 10971 10974 10978 10980 10983 10986 10988 10991 10993 10996 10997 10999 11002 11004 11006 11009 11010 11009 11011 11013 11015 11017 11019 11020 11020 11020 11020 11020 11020 11020 11020 11020 11021 11021 11022 11022 11022 11022 11021 11021
10880 10878 10877 10875 10874 10874 10873 10872 10871 10871 10871 10870 10871 10871 10871 10872 10874 10876 10877 10878 10880 10882 10885 10888 10890 10893 10896 10899 10902 10906 10908 10907 10910 10916 10918 10921 10924 10928 10932 10936 10940 10944 10947 10951 10955 10958 10962 10965 10967 10970 10974 10978 10981 10984 10985 10987 10990 10992 10994 10997 11000 11002 11003 11004 11005 11006 11008 11011 11013 11015 11017 11019 11019 11018 11018 11020 11020 11019 11019 11019 11020 11021 11022 11022 11022 11022 11022 11021
10877 10874 10873 10871 10869 10868 10868 10867 10867 10866 10865 10865 10865 10865 10865 10866 10868 10870 10871 10872 10874 10876 10879 10882 10885 10887 10890 10894 10897 10900 10901 10900 10905 10912 10913 10915 10919 10921 10925 10930 10934 10939 10943 10947 10951 10955 10958 10961 10964 10967 10972 10976 10978 10980 10981 10983 10986 10989 10992 10995 10997 10998 10999 11001 11002 11004 11006 11009 11011 11013 11015 11017 11018 11016 11017 11021 11021 11018 11019 11019 11020 11021 11021 11022 11022 11022 11022 11021
10872 10870 10868 10866 10864 10863 10862 10861 10861 10860 10860 10859 10859 10859 10859 10860 10862 10864 10865 10866 10868 10871 10872 10876 10879 10881 10885 10887 10891 10894 10893 10893 10900 10906 10907 10909 10914 10916 10920 10924 10928 10933 10938 10942 10946 10950 10953 10957 10961 10965 10969 10972 10974 10975 10977 10979 10982 10985 10989 10992 10995 10996 10997 10999 11001 11003 11005 11007 11009 11011 11013 11016 11016 11015 11017 11020 11019 11017 11018 11018 11019 11020 11020 11021 11022 11022 11022 11022
10867 10865 10863 10861 10860 10858 10857 10855 10854 10854 10853 10853 10853 10853 10853 10854 10855 10857 10858 10860 10862 10864 10866 10869 10872 10875 10879 10881 10885 10886 10884 10887 10893 10900 10902 10904 10908 10912 10915 10918 10922 10927 10931 10936 10941 10945 10949 10953 10958 10961 10966 10969 10970 10972 10974 10976 10978 10982 10986 10989 10992 10993 10994 10996 10998 11001 11004 11005 11007 11010 11012 11014 11015 11015 11016 11018 11018 11016 11017 11018 11019 11019 11020 11021 11021 11022 11022 11022
10862 10859 10857 10855 10853 10851 10850 10849 10848 10847 10846 10846 10846 10846 10846 10847 10848 10849 10851 10852 10855 10857 10859 10862 10865 10869 10872 10874 10879 10877 10878 10883 10887 10895 10898 10898 10902 10906 10909 10913 10917 10921 10925 10931 10936 10940 10945 10950 10954 10958 10963 10966 10966 10968 10971 10973 10975 10979 10982 10985 10988 10990 10992 10994 10997 10999 11002 11003 11005 11008 11011 11013 11015 11015 11015 11016 11017 11016 11016 11017 11018 11018 11019 11020 11021 11021 11021 11021
10855 10853 10850 10848 10846 10844 10842 10842 10841 10839 10838 10837 10837 10838 10838 10839 10840 10841 10843 10844 10847 10850 10852 10855 10858 10862 10864 10869 10872 10870 10873 10877 10879 10889 10891 10891 10897 10901 10904 10908 10912 10916 10920 10925 10930 10935 10940 10946 10949 10954 10959 10959 10961 10965 10967 10968 10971 10975 10978 10981 10984 10987 10990 10994 10996 10997 10999 11002 11003 11006 11008 11011 11013 11013 11013 11015 11017 11016 11016 11016 11017 11017 11018 11019 11020 11021 11021 11021
10849 10846 10843 10840 10838 10835 10834 10833 10831 10831 10830 10829 10829 10829 10829 10830 10831 10833 10834 10836 10839 10841 10844 10847 10851 10854 10857 10862 10864 10863 10868 10870 10874 10883 10885 10885 10891 10895 10899 10903 10906 10910 10914 10919 10925 10930 10936 10940 10944 10949 10951 10951 10955 10957 10959 10962 10966 10970 10973 10976 10980 10984 10988 10992 10995 10996 10998 11000 11001 11004 11006 11008 11010 11010 11012 11015 11015 11015 11015 11016 11016 11017 11017 11019 11020 11020 11020 11021
10841 10838 10835 10832 10829 10827 10825 10823 10822 10821 10820 10820 10820 10819 10819 10820 10821 10823 10825 10827 10829 10832 10836 10839 10843 10847 10849 10854 10856 10857 10861 10862 10867 10876 10877 10880 10885 10888 10893 10897 10901 10905 10909 10914 10919 10924 10929 10933 10937 10941 10942 10944 10949 10951 10954 10959 10962 10967 10969 10972 10976 10981 10986 10991 10995 10996 10996 10997 10998 11001 11003 11005 11008 11010 11013 11014 11014 11015 11015 11015 11016 11016 11017 11018 11019 11020 11020 11020
10833 10829 10826 10823 10820 10818 10815 10814 10812 10810 10809 10809 10809 10809 10808 10809 10811 10813 10814 10817 10820 10823 10827 10831 10835 10838 10841 10846 10846 10848 10852 10854 10860 10868 10870 10873 10878 10882 10887 10891 10896 10900 10904 10908 10911 10916 10922 10926 10930 10933 10935 10939 10944 10947 10951 10956 10960 10965 10966 10970 10974 10978 10983 10988 10991 10993 10992 10993 10995 10997 11000 11002 11006 11012 11014 11013 11013 11014 11014 11015 11015 11015 11016 11018 11019 11019 11019 11020
10824 10820 10817 10814 10811 10808 10805 10803 10801 10800 10799 10798 10798 10798 10797 10798 10799 10801 10804 10806 10809 10813 10817 10822 10826 10828 10832 10836 10836 10841 10846 10848 10854 10861 10864 10866 10871 10876 10881 10885 10890 10893 10896 10900 10904 10909 10916 10920 10924 10929 10933 10937 10942 10945 10949 10953 10957 10960 10962 10967 10970 10975 10980 10983 10986 10988 10988 10989 10991 10994 10996 10999 11004 11010 11014 11012 11011 11012 11013 11014 11015 11015 11016 11017 11018 11018 11019 11019
10814 10810 10807 10804 10801 10798 10795 10792 10791 10789 10787 10786 10786 10786 10785 10786 10788 10790 10792 10795 10799 10803 10808 10812 10815 10818 10824 10826 10829 10835 10839 10843 10848 10853 10857 10860 10865 10870 10873 10878 10882 10886 10890 10894 10898 10903 10909 10913 10918 10925 10930 10935 10939 10943 10945 10948 10952 10955 10958 10962 10966 10971 10976 10979 10982 10983 10984 10986 10987 10989 10992 10995 11000 11006 11009 11008 11008 11010 11012 11013 11014 11014 11016 11017 11018 11018 11018 11018
10804 10800 10796 10793 10790 10787 10784 10781 10779 10777 10775 10774 10773 10773 10773 10775 10776 10778 10780 10784 10789 10793 10797 10800 10803 10808 10813 10816 10821 10826 10832 10838 10840 10844 10850 10854 10859 10862 10864 10870 10874 10879 10884 10888 10892 10897 10902 10907 10914 10921 10925 10928 10933 10935 10936 10941 10946 10949 10951 10956 10961 10966 10970 10974 10976 10978 10981 10983 10984 10986 10988 10991 10995 11000 11003 11003 11004 11008 11010 11012 11013 11014 11015 11016 11017 11017 11017 11018
10792 10788 10784 10781 10778 10774 10771 10769 10767 10765 10763 10761 10761 10761 10761 10763 10765 10766 10769 10773 10777 10781 10784 10788 10792 10799 10804 10809 10814 10820 10827 10831 10830 10835 10842 10846 10850 10852 10856 10863 10868 10873 10878 10881 10885 10890 10896 10902 10909 10915 10917 10920 10924 10926 10927 10934 10941 10943 10946 10952 10957 10961 10964 10967 10970 10973 10978 10981 10981 10983 10985 10988 10991 10995 10999 11001 11003 11006 11008 11010 11012 11012 11014 11016 11016 11017 11017 11017
10780 10776 10772 10768 10765 10762 10758 10756 10754 10752 10750 10749 10748 10749 10749 10751 10753 10755 10758 10762 10765 10769 10773 10778 10783 10789 10794 10800 10806 10813 10819 10820 10820 10826 10832 10837 10840 10843 10849 10856 10861 10866 10870 10874 10879 10885 10891 10897 10902 10907 10909 10912 10917 10920 10921 10928 10934 10937 10941 10947 10952 10957 10960 10963 10966 10968 10972 10976 10977 10979 10983 10985 10988 10992 10996 10999 11001 11005 11007 11008 11009 11010 11011 11013 11015 11016 11017 11017
10768 10763 10758 10755 10751 10748 10745 10743 10741 10739 10738 10737 10737 10737 10738 10740 10742 10744 10748 10751 10755 10758 10762 10767 10772 10778 10784 10791 10799 10804 10805 10805 10809 10815 10822 10827 10830 10834 10841 10847 10853 10858 10862 10867 10874 10881 10887 10891 10895 10898 10901 10905 10911 10914 10916 10923 10929 10931 10937 10943 10947 10952 10956 10959 10962 10963 10967 10972 10973 10975 10980 10983 10986 10990 10994 10997 11000 11003 11005 11005 11006 11008 11009 11011 11013 11015 11016 11017
10755 10749 10744 10740 10737 10734 10731 10729 10728 10727 10726 10726 10726 10727 10728 10730 10732 10735 10738 10742 10745 10748 10752 10757 10762 10769 10775 10781 10787 10787 10788 10793 10800 10807 10813 10818 10822 10828 10835 10840 10845 10849 10854 10861 10868 10875 10881 10883 10885 10888 10893 10898 10904 10908 10909 10916 10922 10927 10934 10939 10942 10946 10950 10954 10956 10958 10964 10969 10971 10973 10977 10980 10984 10988 10991 10995 10998 11000 11001 11002 11005 11006 11008 11010 11012 11014 11015 11017
10741 10735 10730 10726 10723 10721 10719 10717 10716 10715 10715 10716 10717 10718 10719 10721 10723 10726 10729 10733 10736 10739 10743 10748 10753 10759 10764 10770 10773 10773 10779 10788 10795 10801 10806 10810 10816 10823 10827 10832 10837 10841 10847 10854 10861 10868 10872 10873 10876 10880 10885 10890 10897 10899 10901 10909 10919 10925 10930 10932 10936 10941 10945 10947 10948 10951 10959 10967 10969 10970 10973 10976 10981 10985 10988 10991 10995 10997 10997 10999 11003 11004 11007 11009 11011 11013 11014 11016
10727 10721 10716 10713 10711 10709 10708 10706 10706 10706 10707 10707 10708 10710 10711 10713 10715 10717 10720 10724 10728 10731 10735 10739 10744 10749 10754 10759 10761 10763 10773 10782 10787 10792 10796 10801 10811 10816 10818 10823 10829 10834 10840 10846 10853 10859 10862 10864 10868 10873 10878 10884 10889 10892 10896 10907 10915 10919 10923 10926 10932 10937 10937 10939 10941 10944 10952 10962 10964 10964 10968 10972 10977 10982 10984 10988 10991 10992 10993 10996 11000 11002 11005 11007 11010 11012 11013 11014
10713 10708 10704 10702 10700 10699 10698 10698 10697 10698 10699 10700 10701 10702 10704 10706 10707 10710 10713 10717 10720 10724 10727 10731 10735 10739 10743 10748 10750 10754 10764 10770 10776 10781 10784 10792 10802 10806 10809 10815 10821 10826 10832 10838 10845 10851 10854 10857 10862 10867 10872 10876 10882 10886 10893 10900 10905 10910 10916 10921 10927 10930 10929 10931 10935 10939 10947 10955 10955 10957 10963 10968 10974 10979 10982 10985 10987 10987 10990 10993 10997 11000 11003 11005 11008 11011 11012 11013
10702 10698 10694 10692 10691 10690 10690 10691 10691 10691 10692 10693 10695 10696 10697 10699 10701 10703 10706 10710 10714 10716 10718 10722 10725 10729 10735 10741 10742 10744 10753 10759 10766 10772 10776 10784 10793 10796 10800 10806 10811 10817 10823 10830 10838 10843 10846 10849 10854 10860 10865 10870 10876 10881 10886 10891 10898 10906 10910 10914 10919 10921 10921 10924 10929 10933 10940 10947 10949 10952 10960 10964 10970 10975 10979 10981 10982 10984 10988 10991 10994 10997 11000 11003 11006 11009 11010 11011
10693 10689 10687 10685 10684 10684 10684 10684 10685 10685 10686 10687 10689 10690 10691 10693 10695 10697 10699 10703 10707 10708 10710 10713 10716 10722 10727 10730 10730 10733 10743 10750 10756 10764 10767 10775 10783 10787 10791 10797 10801 10807 10814 10822 10830 10834 10838 10842 10848 10853 10858 10864 10869 10872 10878 10885 10894 10901 10903 10908 10913 10913 10914 10919 10923 10926 10934 10942 10944 10949 10956 10960 10965 10971 10975 10978 10979 10981 10985 10988 10991 10994 10997 11000 11003 11006 11007 11008
10685 10683 10681 10679 10679 10679 10679 10679 10680 10680 10681 10682 10683 10684 10685 10687 10688 10691 10694 10696 10699 10701 10703 10705 10709 10715 10717 10719 10721 10726 10735 10740 10747 10755 10757 10764 10774 10777 10782 10790 10795 10800 10807 10814 10820 10825 10829 10834 10839 10846 10851 10855 10859 10865 10873 10881 10886 10891 10897 10904 10907 10905 10908 10913 10917 10924 10933 10938 10941 10946 10952 10956 10962 10966 10969 10973 10976 10977 10981 10983 10987 10990 10994 10997 11000 11003 11005 11006
10679 10677 10676 10675 10675 10674 10674 10675 10675 10675 10676 10677 10678 10679 10680 10681 10683 10685 10688 10689 10691 10693 10696 10698 10702 10707 10709 10711 10714 10719 10727 10732 10738 10746 10747 10754 10764 10767 10774 10783 10787 10793 10801 10806 10812 10818 10821 10826 10831 10838 10841 10845 10854 10864 10870 10873 10877 10885 10893 10896 10896 10896 10899 10905 10911 10920 10929 10934 10938 10943 10947 10952 10958 10961 10963 10969 10972 10973 10976 10979 10983 10987 10991 10994 10996 10999 11002 11005
10674 10672 10672 10672 10671 10671 10671 10671 10671 10671 10672 10672 10673 10674 10675 10676 10678 10680 10681 10682 10684 10686 10689 10693 10695 10698 10700 10704 10707 10712 10719 10724 10730 10736 10738 10745 10755 10758 10765 10774 10777 10784 10790 10795 10803 10808 10812 10816 10822 10830 10835 10842 10855 10861 10861 10864 10871 10879 10886 10887 10888 10890 10892 10899 10907 10916 10925 10931 10934 10934 10939 10948 10953 10955 10959 10964 10967 10969 10972 10976 10979 10982 10987 10991 10993 10995 11000 11003
10671 10669 10669 10668 10668 10668 10667 10667 10667 10667 10667 10668 10669 10669 10670 10672 10672 10674 10675 10676 10678 10680 10683 10686 10687 10688 10692 10696 10700 10705 10712 10717 10722 10727 10730 10736 10743 10747 10754 10761 10766 10773 10779 10785 10792 10796 10801 10805 10812 10822 10829 10838 10849 10850 10850 10857 10864 10870 10875 10877 10880 10883 10885 10893 10903 10912 10921 10925 10924 10924 10933 10943 10945 10947 10954 10959 10961 10964 10967 10970 10974 10976 10981 10986 10988 10992 10996 10998
10668 10667 10666 10666 10665 10665 10664 10664 10664 10664 10664 10664 10665 10665 10666 10667 10667 10668 10669 10670 10672 10673 10675 10678 10678 10680 10683 10687 10692 10699 10704 10708 10714 10719 10721 10725 10729 10736 10743 10748 10755 10761 10767 10775 10780 10783 10789 10795 10803 10815 10821 10827 10836 10838 10840 10849 10855 10860 10865 10869 10874 10876 10879 10889 10899 10907 10914 10914 10914 10918 10927 10935 10939 10944 10951 10955 10958 10960 10960 10962 10967 10971 10976 10981 10985 10989 10992 10994
10666 10665 10664 10663 10663 10662 10661 10661 10661 10660 10660 10660 10661 10661 10662 10662 10662 10662 10662 10662 10664 10665 10667 10669 10670 10671 10674 10678 10685 10692 10694 10699 10707 10710 10714 10717 10721 10729 10735 10739 10747 10748 10752 10762 10769 10774 10781 10784 10794 10807 10811 10818 10828 10831 10831 10838 10847 10852 10857 10862 10866 10870 10875 10884 10893 10900 10904 10904 10906 10909 10915 10927 10938 10944 10950 10954 10956 10956 10954 10957 10963 10967 10970 10976 10981 10986 10988 10991
10664 10663 10662 10661 10661 10660 10659 10658 10658 10657 10657 10657 10657 10657 10656 10656 10655 10655 10654 10654 10655 10656 10658 10660 10661 10662 10665 10670 10679 10684 10685 10691 10699 10702 10706 10710 10713 10721 10725 10729 10735 10736 10741 10753 10759 10766 10770 10774 10786 10796 10798 10808 10818 10818 10819 10829 10840 10845 10848 10855 10861 10866 10873 10878 10884 10888 10891 10894 10895 10897 10905 10922 10936 10943 10949 10951 10951 10950 10950 10954 10960 10963 10966 10972 10977 10981 10984 10986
10662 10661 10660 10659 10658 10658 10656 10656 10655 10654 10654 10654 10653 10652 10650 10649 10647 10646 10645 10644 10644 10645 10648 10651 10652 10653 10656 10662 10671 10676 10676 10681 10691 10695 10699 10702 10704 10708 10710 10714 10722 10723 10730 10743 10748 10752 10756 10763 10777 10784 10790 10803 10807 10804 10810 10822 10832 10836 10842 10851 10856 10860 10864 10867 10871 10875 10880 10883 10884 10890 10905 10921 10931 10938 10942 10942 10942 10943 10946 10950 10956 10959 10963 10967 10971 10975 10978 10980
10660 10659 10658 10657 10656 10655 10654 10653 10652 10651 10650 10649 10648 10646 10643 10641 10638 10636 10635 10634 10634 10635 10638 10641 10643 10644 10647 10654 10662 10665 10665 10673 10682 10687 10690 10693 10694 10693 10695 10704 10711 10710 10720 10732 10736 10740 10747 10756 10768 10776 10787 10796 10794 10794 10805 10817 10825 10830 10834 10841 10845 10849 10854 10858 10863 10868 10872 10874 10878 10890 10904 10916 10924 10930 10932 10931 10931 10936 10940 10944 10950 10954 10959 10961 10964 10968 10972 10977
10659 10658 10656 10655 10653 10652 10651 10650 10649 10648 10646 10645 10642 10639 10636 10632 10629 10626 10625 10625 10624 10626 10627 10629 10632 10635 10640 10646 10652 10655 10659 10665 10671 10676 10679 10680 10679 10679 10686 10697 10701 10703 10716 10727 10730 10737 10746 10755 10765 10775 10785 10787 10783 10788 10800 10811 10817 10820 10825 10832 10839 10843 10848 10854 10860 10865 10868 10869 10877 10890 10901 10909 10918 10924 10926 10927 10928 10932 10935 10938 10943 10948 10952 10955 10958 10963 10969 10973
10657 10656 10654 10653 10651 10650 10649 10648 10646 10644 10642 10639 10637 10633 10629 10625 10621 10618 10617 10616 10615 10616 10617 10619 10622 10626 10630 10633 10638 10643 10650 10655 10660 10666 10667 10666 10667 10671 10679 10687 10693 10703 10717 10725 10728 10734 10742 10749 10758 10769 10777 10778 10777 10784 10796 10805 10807 10811 10820 10830 10837 10842 10846 10851 10855 10859 10861 10863 10873 10886 10893 10901 10910 10916 10922 10925 10927 10930 10931 10932 10936 10942 10947 10951 10954 10958 10964 10968
10656 10654 10652 10651 10649 10648 10646 10644 10642 10640 10637 10634 10630 10626 10621 10617 10613 10611 10609 10608 10607 10607 10608 10610 10613 10616 10618 10622 10626 10631 10638 10643 10649 10653 10652 10653 10659 10664 10671 10681 10692 10705 10715 10721 10723 10725 10732 10741 10748 10758 10765 10767 10772 10780 10791 10799 10800 10807 10818 10825 10832 10839 10842 10846 10850 10852 10851 10853 10864 10876 10884 10893 10901 10906 10911 10915 10917 10921 10923 10925 10929 10936 10943 10947 10948 10951 10958 10963
10654 10652 10650 10649 10647 10645 10644 10641 10639 10636 10632 10628 10624 10619 10615 10610 10606 10604 10602 10601 10600 10599 10601 10602 10605 10608 10609 10613 10618 10621 10626 10631 10635 10637 10638 10644 10653 10657 10666 10680 10691 10701 10708 10709 10706 10709 10720 10729 10737 10747 10754 10760 10768 10774 10782 10789 10791 10800 10810 10817 10825 10829 10829 10831 10836 10838 10838 10842 10854 10865 10874 10885 10893 10896 10901 10904 10907 10912 10914 10916 10921 10928 10937 10941 10942 10946 10952 10958
10652 10650 10648 10647 10645 10643 10641 10639 10636 10633 10629 10624 10619 10614 10610 10605 10602 10599 10597 10595 10594 10594 10595 10596 10598 10601 10603 10605 10608 10611 10616 10622 10627 10630 10633 10642 10651 10656 10665 10677 10687 10694 10696 10692 10691 10700 10713 10720 10729 10739 10746 10754 10759 10761 10768 10776 10781 10792 10804 10812 10818 10817 10816 10818 10819 10821 10823 10829 10846 10859 10866 10877 10885 10889 10894 10896 10900 10904 10906 10907 10912 10920 10930 10935 10937 10941 10947 10953
10650 10648 10646 10644 10642 10640 10638 10635 10633 10629 10625 10620 10615 10609 10605 10601 10598 10595 10593 10591 10590 10590 10590 10591 10593 10595 10596 10599 10601 10605 10612 10617 10622 10627 10631 10640 10648 10653 10661 10670 10678 10685 10686 10686 10692 10700 10707 10714 10724 10734 10742 10751 10754 10753 10759 10769 10778 10791 10802 10808 10811 10808 10807 10805 10805 10811 10816 10824 10842 10853 10860 10871 10880 10883 10885 10887 10893 10899 10900 10901 10907 10915 10924 10930 10933 10938 10943 10947
10648 10646 10644 10642 10640 10638 10635 10632 10629 10625 10620 10615 10610 10605 10601 10598 10594 10592 10590 10588 10587 10586 10586 10587 10588 10590 10591 10593 10596 10600 10606 10610 10614 10618 10624 10633 10640 10646 10653 10663 10672 10680 10683 10686 10690 10693 10697 10706 10718 10728 10738 10746 10747 10748 10756 10767 10777 10786 10791 10795 10795 10790 10787 10790 10798 10807 10814 10825 10839 10846 10851 10862 10870 10871 10873 10878 10886 10893 10896 10898 10903 10911 10920 10926 10930 10933 10937 10942
10646 10644 10642 10640 10638 10635 10633 10630 10626 10622 10617 10612 10607 10602 10598 10594 10592 10589 10587 10585 10584 10583 10583 10583 10584 10586 10587 10588 10592 10596 10599 10602 10607 10611 10616 10623 10631 10637 10647 10656 10665 10671 10674 10675 10679 10683 10690 10701 10713 10722 10729 10734 10738 10744 10752 10761 10770 10776 10780 10784 10780 10771 10772 10782 10794 10802 10809 10821 10832 10836 10843 10854 10859 10861 10864 10871 10880 10889 10894 10894 10896 10904 10914 10921 10925 10928 10932 10936
10645 10642 10640 10639 10637 10634 10631 10628 10625 10621 10616 10610 10605 10600 10595 10592 10590 10587 10585 10583 10582 10581 10580 10580 10581 10582 10583 10586 10589 10591 10594 10597 10601 10605 10609 10616 10623 10629 10638 10647 10653 10657 10661 10664 10669 10674 10681 10692 10703 10711 10719 10727 10735 10742 10744 10749 10756 10759 10763 10765 10760 10756 10764 10779 10790 10795 10801 10812 10822 10828 10836 10845 10850 10853 10858 10866 10876 10886 10889 10887 10887 10895 10905 10913 10919 10922 10926 10930
10642 10640 10639 10637 10635 10632 10630 10627 10623 10619 10614 10609 10604 10599 10594 10591 10588 10585 10583 10582 10580 10579 10578 10578 10578 10579 10581 10583 10586 10588 10590 10594 10597 10600 10605 10611 10616 10621 10629 10637 10642 10647 10653 10658 10664 10669 10674 10682 10691 10700 10709 10718 10726 10731 10732 10737 10743 10746 10752 10755 10752 10754 10765 10777 10785 10787 10791 10803 10814 10822 10831 10838 10842 10847 10855 10863 10872 10879 10882 10880 10881 10887 10896 10906 10912 10916 10920 10923
10640 10638 10636 10635 10633 10630 10628 10625 10622 10618 10613 10609 10604 10598 10594 10590 10587 10584 10582 10580 10579 10577 10577 10577 10577 10578 10579 10580 10583 10584 10586 10589 10592 10596 10601 10605 10610 10615 10621 10627 10634 10639 10646 10654 10661 10666 10669 10673 10681 10691 10699 10705 10712 10717 10721 10726 10731 10738 10747 10749 10747 10752 10763 10773 10778 10781 10787 10798 10807 10816 10825 10831 10835 10844 10852 10859 10865 10872 10876 10876 10877 10881 10888 10897 10905 10909 10912 10916
10639 10637 10635 10633 10631 10629 10626 10623 10620 10617 10612 10607 10603 10598 10594 10590 10586 10583 10581 10579 10577 10576 10575 10576 10576 10577 10577 10579 10580 10582 10584 10586 10588 10592 10596 10599 10604 10610 10615 10621 10627 10633 10641 10649 10655 10659 10660 10663 10672 10682 10689 10696 10703 10707 10711 10715 10719 10729 10735 10733 10736 10748 10759 10765 10768 10773 10781 10791 10800 10810 10817 10822 10828 10837 10845 10852 10859 10864 10868 10870 10873 10876 10880 10888 10896 10901 10904 10908
10637 10635 10633 10631 10629 10627 10625 10622 10618 10615 10611 10606 10602 10597 10593 10590 10586 10583 10581 10578 10577 10575 10574 10574 10574 10575 10576 10577 10578 10579 10581 10582 10584 10587 10590 10593 10599 10605 10610 10615 10621 10627 10634 10640 10645 10649 10650 10652 10662 10675 10684 10692 10700 10706 10712 10714 10716 10723 10725 10725 10736 10749 10754 10756 10759 10764 10773 10782 10791 10800 10807 10814 10821 10827 10834 10843 10849 10853 10857 10863 10868 10870 10873 10879 10886 10891 10896 10901
10635 10634 10632 10630 10628 10626 10623 10620 10617 10613 10609 10605 10601 10597 10593 10589 10586 10583 10581 10578 10576 10574 10573 10572 10572 10573 10573 10574 10574 10575 10576 10578 10582 10584 10586 10590 10595 10600 10604 10609 10613 10618 10623 10628 10633 10637 10639 10645 10656 10668 10676 10683 10692 10700 10706 10706 10709 10715 10718 10722 10734 10743 10743 10744 10748 10754 10765 10775 10781 10789 10798 10806 10813 10817 10822 10829 10835 10841 10848 10855 10861 10863 10864 10868 10875 10882 10888 10893
10633 10632 10630 10628 10626 10624 10621 10619 10615 10612 10608 10604 10600 10596 10592 10589 10586 10583 10580 10578 10575 10574 10572 10571 10571 10571 10571 10571 10572 10573 10574 10577 10579 10581 10583 10587 10592 10596 10600 10603 10606 10611 10615 10620 10624 10627 10633 10641 10650 10659 10666 10675 10683 10688 10689 10690 10695 10704 10708 10713 10723 10730 10731 10733 10735 10741 10754 10765 10773 10781 10790 10797 10803 10807 10811 10816 10823 10832 10840 10845 10850 10852 10854 10858 10865 10872 10879 10885